Flag Weather past 2 weeks in Viersen, North Rhine-Westphalia, Germany

Now
57 °F

Passing clouds.


Feels Like: 57 °F
Forecast: 52 / 65 °F
Wind: 5 mph from Southeast

Location: Monchengladbach Airport

Current Time: Oct 31, 2014 at 12:52:41 AM

Latest Report: Oct 30, 2014 at 8:50 PM


Visibility: N/A

Pressure: 30.21 "Hg

Humidity: 94%

Dew point: 55 °F

Location of ViersenLocation

Historic Weather in Viersen — Graph

°F

Viersen temperature yesterday

Maximum temperature yesterday: 61 °F (at 2:20 PM)
Minimum temperature yesterday: 52 °F (at 7:50 AM)
Average temperature yesterday: 57 °F

Past Weeks' High & Low Weather Summary

 TemperatureHumidityPressure
High75 °F (Oct 19, 1:20 PM)100% (Oct 16, 9:20 AM)30.27 "Hg (Oct 16, 9:20 AM)
Low45 °F (Oct 22, 8:20 AM)57% (Oct 19, 1:50 PM)29.50 "Hg (Oct 21, 3:20 PM)
Average56 °F84%30.04 "Hg
* Reported Oct 15 9:20 PM — Oct 30 8:50 PM, Viersen, Weather by CustomWeather, © 2014

Note: Actual official high and low records may vary slightly from our data, if they occured in-between our weather recording intervals... More about our weather records

Advertising

Viersen weather history for previous 24 hours

 ConditionsComfort  
Time TempWeatherWind HumidityBarometerVisibility
8:50 PM
Oct 30
57 °FPassing clouds.5 mph94%30.21 "HgN/A
8:20 PM57 °FPassing clouds.5 mph94%30.21 "HgN/A
7:50 PM57 °FPassing clouds.5 mph94%30.21 "HgN/A
7:20 PM57 °FPassing clouds.6 mph94%30.21 "HgN/A
6:50 PM57 °FPassing clouds.5 mph94%30.21 "HgN/A
6:20 PM57 °FClear.6 mph94%30.21 "Hg10 mi
5:50 PM59 °FPassing clouds.6 mph88%30.21 "HgN/A
5:20 PM59 °FPassing clouds.6 mph88%30.18 "HgN/A
4:50 PM59 °FPassing clouds.5 mph94%30.18 "HgN/A
4:20 PM61 °FPassing clouds.7 mph88%30.18 "HgN/A
3:50 PM61 °FPassing clouds.6 mph88%30.18 "HgN/A
3:20 PM61 °FClear.5 mph83%30.18 "Hg6 mi
2:50 PM61 °FClear.5 mph83%30.18 "Hg6 mi
2:20 PM61 °FClear.6 mph88%30.18 "Hg4 mi
1:50 PM59 °FClear.6 mph88%30.18 "Hg4 mi
1:20 PM59 °FClear.6 mph88%30.21 "Hg4 mi
12:50 PM59 °FClear.6 mph88%30.21 "Hg4 mi
12:20 PM59 °FPassing clouds.3 mph88%30.21 "Hg4 mi
11:50 AM57 °FPassing clouds.6 mph94%30.21 "Hg4 mi
11:20 AM57 °FFog.6 mph94%30.21 "Hg3 mi
10:50 AM55 °FFog.5 mph100%30.21 "Hg2 mi
10:20 AM55 °FFog.5 mph100%30.21 "Hg2 mi
9:50 AM54 °FFog.6 mph100%30.21 "Hg2 mi
9:20 AM54 °FFog.5 mph100%30.21 "Hg2 mi
8:50 AM54 °FFog.5 mph100%30.18 "Hg2 mi
8:20 AM52 °FDrizzle. Fog.3 mph100%30.18 "Hg1 mi
7:50 AM52 °FDrizzle. Fog.3 mph100%30.18 "Hg1 mi
Weather by CustomWeather, © 2014

See weather overviewHow to use our weather pages